Stations météo

réclame
Mon MeteoGroup
Le Touquet, France (7003): Température de l'air & dewpoint: 16.10.2018 16:00:00 - 22.10.2018 16:00:00 (CEST)Le Touquet, France (7003): Température de l'air 5cm: 16.10.2018 16:00:00 - 22.10.2018 16:00:00 (CEST)Le Touquet, France (7003): Vitesse du vent & gusts: 16.10.2018 16:00:00 - 22.10.2018 16:00:00 (CEST)Le Touquet, France (7003): Direction du vent: 16.10.2018 16:00:00 - 22.10.2018 16:00:00 (CEST)Le Touquet, France (7003): reduced air pressure: 16.10.2018 16:00:00 - 22.10.2018 16:00:00 (CEST)Le Touquet, France (7003): visibility: 16.10.2018 16:00:00 - 22.10.2018 16:00:00 (CEST)Le Touquet, France (7003): Ensoleillement: 16.10.2018 16:00:00 - 22.10.2018 16:00:00 (CEST)Le Touquet, France (7003): Quantités de précipitations: 16.10.2018 16:00:00 - 22.10.2018 16:00:00 (CEST)
Date & Time tt [°C] td [°C] tt 5cm [°C] ff [km/h] ff [knt] fx [km/h] fx [knt] dd ppp [hPa] vv [km] sd [min] rr [mm]
22.10.2018 16:00:00 13,9 7,6 14,5 18 10 39 21 NNE 1035,2 38 11 0,0
22.10.2018 15:00:00 14,3 7,1 15,3 22 12 41 22 NNE 1035,3 20 22 0,0
22.10.2018 14:00:00 14,8 7,1 15,6 22 12 38 21 NE 1035,0 20 45 0,0
22.10.2018 13:00:00 13,8 6,4 14,5 26 14 40 22 NNE 1035,1 38 16 0,0
22.10.2018 12:00:00 13,4 7,8 14,4 22 12 40 21 NNE 1035,0 48 16 0,0
22.10.2018 11:00:00 13,6 7,6 14,9 22 12 39 21 NNE 1034,7 20 60 0,0
22.10.2018 10:00:00 12,5 8,8 11,6 16 9 33 18 N 1033,6 20 12 0,0
22.10.2018 09:00:00 12,5 10,2 12,0 16 9 35 19 N 1032,7 20 0 0,0
22.10.2018 08:00:00 12,5 11,2 12,0 18 10 32 18 N 1031,8 9 0 0,0
22.10.2018 07:00:00 12,7 10,9 12,3 17 9 38 21 NNE 1031,1 60 0 0,0
22.10.2018 06:00:00 13,0 11,7 12,3 16 9 38 21 N 1030,3 60 0 0,0
22.10.2018 05:00:00 13,4 12,5 12,7 18 10 39 21 N 1029,8 11 0 0,0
22.10.2018 04:00:00 14,0 13,8 9,7 14 8 24 13 N 1029,2 6 0 0,0
22.10.2018 03:00:00 9,5 9,4 6,1 0 0 6 3 N 1028,9 2,2 0 0,0
22.10.2018 02:00:00 7,6 7,3 5,4 4 2 8 4 SSE 1028,7 0,2 0 0,2
22.10.2018 01:00:00 9,2 8,9 5,0 3 2 6 4 S 1028,3 1,0 0 0,0
22.10.2018 00:00:00 9,3 9,0 7,0 5 3 8 4 SSE 1028,0 1,3 0 0,0
21.10.2018 23:00:00 9,4 8,9 4,8 6 3 7 4 SSE 1027,6 2,0 0 0,0
21.10.2018 22:00:00 10,0 9,5 5,4 2 1 8 4 S 1027,5 2,2 0 0,0
21.10.2018 21:00:00 10,6 10,0 5,0 0 0 4 2 N 1027,5 2,9 0 0,0
21.10.2018 20:00:00 11,6 10,7 7,0 0 0 3 2 N 1027,0 3,4 0 0,0
21.10.2018 19:00:00 13,9 11,8 10,0 2 1 9 5 SW 1027,0 4,0 25 0,0
21.10.2018 18:00:00 16,2 12,0 16,1 5 3 11 6 W 1026,8 16 60 0,0
21.10.2018 17:00:00 16,7 12,0 17,0 8 4 11 6 WNW 1027,3 15 60 0,0
21.10.2018 16:00:00 16,6 11,7 17,4 7 4 15 8 NW 1027,8 17 60 0,0
21.10.2018 15:00:00 16,5 11,6 20,8 11 6 17 9 NW 1028,1 10 60 0,0
21.10.2018 14:00:00 16,9 11,2 18,5 8 4 14 7 NNW 1028,2 15 60 0,0
21.10.2018 13:00:00 16,7 9,1 18,6 2 1 4 2 NNE 1028,7 15 52 0,0
21.10.2018 12:00:00 13,8 9,2 17,2 4 2 10 5 SSE 1029,2 10 34 0,0
21.10.2018 11:00:00 12,4 9,0 13,0 8 4 11 6 SE 1029,4 9 60 0,0
21.10.2018 10:00:00 9,4 8,0 8,0 8 4 11 6 SE 1029,5 5 60 0,0
21.10.2018 09:00:00 7,6 7,0 6,4 9 5 12 6 SSE 1029,2 4,2 15 0,0
21.10.2018 08:00:00 7,1 6,7 5,0 4 2 9 5 SSE 1028,8 3,4 0 0,0
21.10.2018 07:00:00 6,6 6,0 4,6 6 3 9 5 SE 1029,0 2,7 0 0,0
21.10.2018 06:00:00 7,5 6,8 5,7 4 2 9 5 S 1029,5 3,6 0 0,0
21.10.2018 05:00:00 7,5 6,9 6,1 8 4 11 6 SE 1029,7 3,6 0 0,0
21.10.2018 04:00:00 6,5 6,2 5,4 8 4 13 7 SE 1030,2 2,8 0 0,0
21.10.2018 03:00:00 6,5 6,1 5,2 6 4 11 6 SSE 1030,5 2,8 0 0,0
21.10.2018 02:00:00 7,3 6,7 6,0 5 3 9 5 SSE 1030,8 2,8 0 0,0
21.10.2018 01:00:00 8,0 7,6 6,1 5 3 10 5 SSE 1031,3 3,4 0 0,0
21.10.2018 00:00:00 8,3 7,7 4,7 8 5 10 5 SE 1031,4 3,7 0 0,0
20.10.2018 23:00:00 8,1 7,3 3,4 3 1 6 3 S 1031,6 4,0 0 0,0
20.10.2018 22:00:00 8,6 7,7 3,1 4 2 5 3 SSE 1031,5 2,6 0 0,0
20.10.2018 21:00:00 9,7 8,5 4,5 2 1 6 3 S 1031,3 5 0 0,0
20.10.2018 20:00:00 11,5 9,4 7,2 6 3 8 4 NNW 1031,4 17 0 0,0
20.10.2018 19:00:00 12,5 9,5 8,6 5 3 10 5 NNW 1031,2 20 28 0,0
20.10.2018 18:00:00 14,3 10,1 13,4 6 3 16 8 NW 1030,5 20 57 0,0
20.10.2018 17:00:00 14,9 10,1 15,1 13 7 22 12 NNW 1031,0 52 60 0,0
20.10.2018 16:00:00 15,4 10,2 16,1 10 5 18 10 NW 1031,4 20 60 0,0
20.10.2018 15:00:00 15,5 9,6 20,8 8 5 15 8 NW 1031,5 55 60 0,0
20.10.2018 14:00:00 16,1 9,5 16,4 4 2 11 6 ESE 1032,2 18 60 0,0
20.10.2018 13:00:00 14,5 9,5 16,3 7 4 10 6 ESE 1032,5 20 57 0,0
20.10.2018 12:00:00 12,1 9,1 11,6 5 3 9 5 SE 1032,8 19 28 0,0
20.10.2018 11:00:00 8,9 7,8 6,5 6 3 11 6 SE 1032,6 12 26 0,0
20.10.2018 10:00:00 6,1 5,7 4,3 4 2 10 5 SSE 1032,5 6 6 0,0
20.10.2018 09:00:00 4,6 4,2 2,8 6 3 9 5 SSE 1031,5 4,7 5 0,0
20.10.2018 08:00:00 4,6 4,2 2,1 6 3 8 5 SSE 1030,7 4,5 0 0,0
20.10.2018 07:00:00 4,9 4,3 2,4 4 2 11 6 SSE 1030,4 5 0 0,0
20.10.2018 06:00:00 5,4 4,8 3,4 5 3 11 6 SSE 1029,9 7 0 0,0
20.10.2018 05:00:00 5,5 4,9 3,3 5 3 8 5 SSE 1029,4 6 0 0,0
20.10.2018 04:00:00 5,9 5,5 1,4 8 4 10 5 SSE 1029,2 6 0 0,0
20.10.2018 03:00:00 5,6 4,9 1,7 3 2 11 6 S 1029,1 6 0 0,0
20.10.2018 02:00:00 6,3 5,6 1,8 3 2 9 5 S 1029,0 8 0 0,0
20.10.2018 01:00:00 6,4 5,5 2,0 4 2 7 4 SSE 1028,9 5 0 0,0
20.10.2018 00:00:00 7,2 6,3 2,3 5 3 8 5 SSE 1028,7 12 0 0,0
19.10.2018 23:00:00 7,5 6,3 2,8 0 0 6 4 N 1028,4 20 0 0,0
19.10.2018 22:00:00 7,8 6,1 2,9 4 2 5 3 NNW 1028,4 15 0 0,0
19.10.2018 21:00:00 9,2 7,1 4,8 5 3 9 5 NW 1027,6 30 0 0,0
19.10.2018 20:00:00 10,6 7,1 6,2 5 3 12 6 NNW 1027,0 42 0 0,0
19.10.2018 19:00:00 12,6 7,1 9,7 8 4 17 9 NE 1026,0 60 30 0,0
19.10.2018 18:00:00 15,1 8,1 14,5 15 8 23 12 NNE 1025,8 58 46 0,0
19.10.2018 17:00:00 15,5 8,5 15,5 16 8 24 13 N 1025,3 58 29 0,0
19.10.2018 16:00:00 16,6 8,5 16,4 12 7 25 13 NE 1025,0 60 50 0,0
19.10.2018 15:00:00 17,0 8,7 20,2 13 7 25 14 NNE 1024,8 47 49 0,0
19.10.2018 14:00:00 16,6 9,8 19,0 13 7 24 13 NE 1025,2 20 53 0,2
19.10.2018 13:00:00 16,4 10,0 18,0 18 10 26 14 ENE 1025,2 17 34 0,0
19.10.2018 12:00:00 15,1 10,7 16,1 10 6 18 10 ENE 1025,5 0,2 0 0,0
19.10.2018 11:00:00 13,8 10,2 15,0 13 7 18 10 E 1025,5 18 19 0,0
19.10.2018 10:00:00 13,0 9,8 11,6 8 5 15 8 ESE 1025,0 18 50 0,0
19.10.2018 09:00:00 11,8 9,2 11,3 11 6 17 9 E 1024,5 20 0 0,0
19.10.2018 08:00:00 12,0 9,0 10,6 11 6 19 10 NE 1024,3 23 0 0,0
19.10.2018 07:00:00 12,4 9,0 11,4 12 6 18 10 NE 1024,2 27 0 0,0
19.10.2018 06:00:00 12,5 9,0 10,1 11 6 19 11 ENE 1024,4 32 0 0,0
19.10.2018 05:00:00 10,1 9,2 6,9 5 3 14 7 ENE 1024,5 29 0 0,0
19.10.2018 04:00:00 9,0 7,8 7,0 3 2 16 8 W 1024,6 27 0 0,0
19.10.2018 03:00:00 11,3 8,2 8,9 8 5 15 8 NE 1024,5 34 0 0,0
19.10.2018 02:00:00 11,0 8,0 8,4 9 5 15 8 NNE 1024,6 35 0 0,0
19.10.2018 01:00:00 11,8 8,3 9,0 6 4 18 10 NE 1024,9 44 0 0,0
19.10.2018 00:00:00 13,3 9,0 12,1 11 6 22 12 NE 1025,0 55 0 0,0
18.10.2018 23:00:00 13,8 9,4 13,1 11 6 17 9 NE 1025,2 60 0 0,0
18.10.2018 22:00:00 13,7 9,9 13,2 8 5 19 10 NNE 1025,3 60 0 0,0
18.10.2018 21:00:00 13,9 9,7 13,2 11 6 23 12 NNE 1025,1 60 0 0,0
18.10.2018 20:00:00 13,7 9,7 12,9 11 6 19 10 N 1024,9 60 0 0,0
18.10.2018 19:00:00 14,2 10,0 13,5 11 6 27 14 NNE 1024,5 60 0 0,0
18.10.2018 18:00:00 15,4 10,6 14,7 16 9 29 16 NE 1024,3 49 11 0,0
18.10.2018 17:00:00 16,1 10,4 16,1 22 12 34 18 ENE 1024,3 58 11 0,0
18.10.2018 16:00:00 16,0 11,4 16,0 14 8 28 15 ENE 1024,7 59 0 0,0
18.10.2018 15:00:00 15,9 12,1 16,6 14 8 32 17 NE 1024,8 50 0 0,0
18.10.2018 14:00:00 16,4 11,5 17,7 20 11 35 19 ENE 1024,9 31 5 0,0
18.10.2018 13:00:00 16,0 11,8 16,8 20 11 40 22 ENE 1025,3 60 7 0,0
18.10.2018 12:00:00 15,2 12,5 15,2 22 12 34 18 ENE 1025,2 40 0 0,0
18.10.2018 11:00:00 14,7 13,7 14,2 9 5 17 9 ENE 1024,9 56 0 0,0
18.10.2018 10:00:00 14,2 13,9 13,0 3 2 6 4 N 1024,3 33 0 0,0
18.10.2018 09:00:00 13,0 12,7 11,7 0 0 7 4 N 1024,0 8 0 0,0
18.10.2018 08:00:00 12,7 12,5 8,8 6 3 10 5 N 1023,6 7 0 0,0
18.10.2018 07:00:00 10,9 10,6 7,5 0 0 9 5 N 1023,6 6 0 0,0
18.10.2018 06:00:00 10,0 9,8 5,3 3 2 7 4 ENE 1023,5 4,1 0 0,0
18.10.2018 05:00:00 9,3 9,0 5,4 2 1 4 2 NW 1023,4 2,1 0 0,0
18.10.2018 04:00:00 9,5 9,2 4,7 0 0 5 3 N 1023,5 2,9 0 0,2
18.10.2018 03:00:00 9,4 8,8 5,1 3 1 4 2 NNW 1023,3 3,7 0 0,0
18.10.2018 02:00:00 10,8 10,2 6,0 0 0 9 5 N 1023,0 4,0 0 0,0
18.10.2018 01:00:00 10,7 9,9 6,6 5 3 9 5 NNW 1022,9 9 0 0,0
18.10.2018 00:00:00 10,2 9,3 6,3 0 0 5 3 N 1022,8 10 0 0,0
17.10.2018 23:00:00 10,8 9,9 6,5 3 2 4 2 SSW 1022,5 12 0 0,0
17.10.2018 22:00:00 11,3 9,4 7,0 0 0 4 2 N 1022,1 20 0 0,0
17.10.2018 21:00:00 12,9 10,4 7,6 3 2 7 4 NNW 1021,6 20 0 0,0
17.10.2018 20:00:00 13,7 11,2 9,7 5 3 11 6 NNW 1020,8 48 0 0,0
17.10.2018 19:00:00 14,5 11,6 12,6 10 5 18 10 NNW 1020,2 55 34 0,0
17.10.2018 18:00:00 16,2 12,2 16,4 14 8 23 12 NNW 1019,7 45 21 0,0
17.10.2018 17:00:00 16,4 12,7 17,3 12 7 19 10 NW 1019,7 52 15 0,0
17.10.2018 16:00:00 17,3 12,6 17,8 11 6 18 10 NNW 1019,8 54 52 0,0
17.10.2018 15:00:00 17,8 12,5 24,0 9 5 18 10 WNW 1019,7 27 57 0,0
17.10.2018 14:00:00 17,7 11,7 19,2 10 6 16 9 WNW 1019,8 43 35 0,0
17.10.2018 13:00:00 17,4 12,9 17,5 3 1 14 7 SE 1020,0 18 9 0,0
17.10.2018 12:00:00 16,6 12,1 19,3 0 0 10 5 N 1020,0 60 26 0,0
17.10.2018 11:00:00 15,7 14,1 15,7 4 2 7 4 ESE 1019,9 10 54 0,0
17.10.2018 10:00:00 13,1 12,8 12,1 6 3 8 4 SE 1019,8 6 4 0,0
17.10.2018 09:00:00 11,9 11,6 10,9 5 3 8 4 SE 1019,4 4,9 0 0,0
17.10.2018 08:00:00 11,9 11,6 10,0 5 3 7 4 SE 1019,1 4,3 0 0,0
17.10.2018 07:00:00 12,2 11,9 11,5 5 3 9 5 SE 1018,9 4,1 0 0,0
17.10.2018 06:00:00 12,7 12,4 11,1 3 2 9 5 SSE 1018,6 5 0 0,0
17.10.2018 05:00:00 12,4 12,1 11,0 4 2 8 4 SSE 1018,5 4,0 0 0,0
17.10.2018 04:00:00 12,3 12,0 11,0 6 3 7 4 SE 1018,7 3,0 0 0,0
17.10.2018 03:00:00 12,3 12,0 11,0 4 2 9 5 SSE 1018,7 4,2 0 0,0
17.10.2018 02:00:00 12,5 12,0 11,3 6 3 8 4 SE 1018,7 5 0 0,0
17.10.2018 01:00:00 12,9 12,4 12,3 4 2 6 4 SE 1018,8 6 0 0,0
17.10.2018 00:00:00 12,9 12,4 12,4 5 3 7 4 SE 1018,8 7 0 0,0
16.10.2018 23:00:00 13,2 12,6 8,7 3 2 6 3 SE 1018,8 12 0 0,0
16.10.2018 22:00:00 13,3 12,2 8,8 0 0 3 1 N 1018,7 4,9 0 0,0
16.10.2018 21:00:00 15,1 13,0 10,4 0 0 13 7 N 1018,6 17 0 0,0
16.10.2018 20:00:00 16,0 14,0 14,2 7 4 15 8 WNW 1018,6 19 0 0,0
16.10.2018 19:00:00 16,5 14,3 15,4 13 7 21 12 WNW 1018,1 15 13 0,0
16.10.2018 18:00:00 18,4 12,6 18,5 13 7 19 11 NW 1017,5 20 60 0,0
16.10.2018 17:00:00 22,5 12,4 21,5 4 2 9 5 SW 1016,9 47 60 0,0
16.10.2018 16:00:00 21,3 12,4 21,7 6 3 14 8 W 1017,2 20 60 0,0

tt = Température de l'air
td = dewpoint
tt 5cm = Température de l'air 5cm
ff = Vitesse du vent
fx = gusts
dd = Direction du vent
ppp = reduced air pressure
vv = visibility
sd = Ensoleillement
rr = Quantités de précipitations

stations d'obs. à proximité